Portada
METAR-TAF:

METAR-TAF

Aeroports :

Vlissingen, Països Baixos

latitud: 51-27N, longitud: 3-36E, altitud: 10 m

Observació

L'informe es va fer fa 46 minuts, a les 17:25 UTC
Vent 9 kt del Oest/Nord-Oest, variant entre Oest i Nord/Nord-Oest
Temperatura 19°C
Humitat 64%
Pressió 1014 hPa
Visibilitat 10 km o més

METAR: EHFS 021725Z AUTO 30009KT 270V330 9999 NSC 19/12 Q1014

Hora: 20:11 (18:11 UTC)


TAF: manca

Observacions i pronòstics meteorològics de més de 4000 aeroports (METAR i TAF).

Les estacions disponibles són els punts grocs i vermells al mapa.

Posi el ratolí al punt desitjat per veure el nom de l'estació.

Feu clic per veure les observacions i els pronòstics meteorològics.

Per canviar el mapa: feu clic els botons verds amb una creu de color negre per apropar; al botó verd amb un guió per allunyar la imatge; o en les fletxes verdes per a mapes adjacents.


METAR-TAF: